Tracking 17855 objects as of 26-September-2016
HD Live streaming from Space Station
objects crossing your sky now

ABS 3

Track ABS 3 now!
ABS 3 is classified as:


NORAD ID: 24901
Int'l Code: 1997-042A
Perigee: 35,729.5 km
Apogee: 35,775.0 km
Inclination: 4.4 °
Period: 1,434.0 minutes
Semi major axis: 42123 km
RCS: 10 m2 (large)
Launch date: August 19, 1997
Source: People's Republic of China (PRC)
Launch site: Xichang Space Center, China (XSC)

Most powerful telecommunications satellite in service in the Asia-Pacific region; 30 C-band, 24 Ku-band transponders; 190 high fidelity channels and 50,000 simultaneous telephone links.
Your satellite tracking list
Your tracking list is empty





NASA's NSSDC Master Catalog

Two Line Element Set (TLE):
1 24901U 97042A   16268.98243747 -.00000133  00000-0  00000+0 0  9992
2 24901   4.3989  64.7870 0005406 131.0932 234.9619  1.00420554 69917
Source of the keplerian elements: AFSPC

N2YO: 500